Dewpoint
50 49 49 49 49 48 48 47 46 46 45 45 44 43 43 43 41 41 41 41 41 41 42 42 42 42 42 43 42 42 42 42 42 41 41 40 40 40 39 39 39 39 40 38 38 38 38 36 36 36 35 33 33 33 33 33 34 34 36 35 35 35 35 34 33 34 34 35 35 35 35 35 34 33 32 31 31 31 35 32 34 34 34 34 35
49 49 49 48 48 48 47 46 45 45 44 44 44 42 41 41 41 40 40 41 41 41 41 41 41 41 41 41 41 41 41 41 41 41 40 40 40 40 39 38 38 38 38 37 38 38 36 36 36 35 35 33 34 32 33 32 33 33 33 34 34 34 34 35 34 34 32 33 33 34 34 35 33 33 32 31 31 33 31 31 32 32 33 34 34
49 49 49 48 48 48 46 45 44 44 43 43 42 41 41 40 41 39 39 40 41 40 40 40 40 40 40 40 40 40 40 40 40 39 39 38 38 38 39 37 37 37 37 37 37 36 36 37 35 35 35 31 32 31 33 32 33 33 33 33 34 34 34 35 34 33 33 32 33 33 32 33 33 33 32 31 33 32 30 30 31 33 35 33 34
49 48 48 48 47 46 45 44 44 43 42 42 41 40 40 40 40 39 39 39 39 40 39 39 39 39 39 39 39 39 39 40 40 40 38 37 37 38 38 37 37 37 37 37 36 36 35 34 34 34 33 30 31 31 31 32 32 33 32 32 33 33 34 35 34 33 33 33 32 32 33 33 33 32 32 32 30 30 30 31 31 31 32 34 33
48 48 47 46 46 45 44 43 43 42 42 41 40 40 39 39 39 38 38 38 39 39 40 39 38 38 38 37 37 38 38 38 39 39 40 39 39 38 38 37 38 38 37 38 41 36 37 34 34 33 32 30 31 30 31 31 32 33 31 31 33 33 34 34 34 34 33 32 32 32 32 32 32 31 30 29 29 29 29 30 30 31 31 32 34
47 47 46 45 44 44 43 43 42 42 42 41 40 39 39 38 38 38 37 37 37 38 38 38 38 36 36 36 36 36 37 37 37 38 38 39 40 39 38 37 37 37 37 37 37 37 36 35 34 33 32 30 30 31 32 31 32 32 32 31 32 33 33 33 33 33 32 32 31 30 30 30 29 29 29 29 29 29 28 29 30 31 32 32 33
47 46 46 45 44 43 42 42 42 42 42 41 40 39 38 38 37 37 38 37 37 37 37 36 37 36 36 36 36 36 36 36 36 36 37 38 39 39 37 36 36 36 36 37 37 37 36 35 35 33 31 31 31 31 32 32 34 33 35 32 33 33 33 32 32 32 31 30 30 30 29 30 30 28 28 29 28 28 28 28 29 30 32 32 32
46 46 45 44 43 43 42 42 42 42 41 40 39 38 38 37 38 38 37 36 36 35 35 36 37 36 36 36 37 38 36 36 35 35 36 37 39 38 38 37 36 35 36 35 37 36 36 36 35 34 34 33 33 33 32 33 34 34 33 33 34 33 33 33 32 31 30 30 29 29 29 29 28 28 29 27 27 27 29 29 29 30 31 32 32
46 45 44 44 43 43 43 43 43 43 41 39 39 38 38 37 37 37 37 37 37 35 34 34 34 34 34 35 35 36 36 36 36 36 36 36 36 38 38 38 36 35 35 34 35 35 36 37 36 36 40 34 37 38 38 38 36 34 34 34 35 34 33 32 32 30 30 30 29 29 29 28 27 27 26 27 27 27 28 29 29 30 31 32 32
45 44 44 43 43 43 43 43 42 41 40 39 38 38 37 37 36 35 35 35 35 35 34 33 33 33 33 34 34 35 36 37 39 40 42 36 36 37 38 37 37 36 36 35 35 35 35 36 41 36 35 39 41 39 37 38 38 38 36 35 34 33 32 32 31 30 31 30 29 29 28 27 27 26 27 27 28 28 28 28 28 29 31 31 32
45 44 44 43 43 43 43 42 41 41 40 39 38 37 37 36 35 35 34 34 35 36 33 32 32 32 32 33 33 35 35 36 38 37 38 40 37 37 37 37 37 36 36 35 34 35 34 34 34 38 39 41 39 39 37 37 37 37 38 38 38 35 32 32 30 31 31 30 30 29 28 27 26 27 27 27 28 28 28 29 29 30 30 30 31
45 44 44 43 43 43 42 41 41 41 40 39 38 38 37 35 35 35 35 35 35 33 32 32 32 32 32 33 33 34 34 38 37 37 38 39 41 39 37 37 37 36 35 35 36 35 33 33 34 33 34 37 38 35 37 37 37 37 37 36 36 36 35 34 33 30 30 30 29 29 28 27 27 27 27 28 28 28 28 29 29 29 30 31 32
44 44 44 43 43 42 41 41 41 40 40 39 38 37 36 36 35 35 34 35 32 31 31 31 31 31 31 32 33 33 33 38 37 38 38 38 38 38 36 35 37 35 34 34 34 34 34 35 34 33 32 37 38 34 34 34 37 37 37 36 35 36 34 33 34 35 33 32 30 28 28 28 28 28 29 30 30 28 28 28 29 30 31 33 34
44 44 43 43 42 41 41 41 40 40 40 39 38 37 36 35 35 35 35 33 31 31 31 30 31 31 31 32 33 32 33 37 37 37 37 37 37 37 35 35 36 35 35 35 34 33 33 33 31 33 32 33 33 34 34 33 33 33 32 30 30 33 34 34 34 34 35 33 30 29 29 30 29 29 31 31 29 29 29 28 30 31 33 35 36
44 44 43 42 41 41 40 40 40 40 39 38 37 36 36 35 35 35 32 31 30 30 30 30 31 34 31 31 32 32 34 36 36 36 36 36 36 36 35 35 35 34 34 35 35 33 33 33 32 33 33 32 34 36 35 34 33 32 31 30 30 30 30 30 30 31 33 32 30 30 30 29 29 30 30 30 30 30 30 30 31 33 35 36 37
44 43 43 42 41 40 40 40 40 40 39 38 37 36 36 35 34 33 33 31 31 31 31 32 31 30 31 31 31 30 32 36 36 36 36 35 36 35 34 34 34 34 33 34 34 34 34 33 32 33 34 32 35 36 36 36 32 31 31 30 30 29 29 33 33 34 34 32 31 31 30 31 33 32 33 31 31 30 31 32 33 34 36 36 35
44 43 42 42 41 41 40 41 40 40 39 38 37 37 36 35 34 34 32 32 32 31 31 30 31 30 31 31 30 29 31 35 36 36 35 35 35 33 34 34 33 32 31 32 32 33 33 37 36 34 33 31 35 35 35 38 31 30 30 30 29 28 28 29 33 33 33 33 33 33 32 33 33 33 33 33 33 32 31 31 32 35 35 34 34
44 43 42 42 41 40 40 40 40 40 39 38 38 37 36 35 35 35 32 32 31 31 31 31 29 31 30 29 30 30 29 34 36 36 36 36 35 32 32 32 31 31 31 31 32 31 33 37 38 34 33 33 35 35 35 36 31 30 30 29 28 27 26 28 30 31 33 32 32 32 32 32 32 32 33 33 33 34 30 30 32 36 35 35 33
43 43 42 41 41 40 40 41 40 40 39 39 39 38 37 37 37 36 34 33 32 33 34 31 31 30 29 30 37 31 30 33 35 35 36 36 36 31 31 30 30 28 30 30 31 31 31 34 36 36 34 36 34 35 35 35 31 30 30 28 27 25 26 29 29 29 29 28 27 28 29 30 30 29 31 32 33 35 30 31 34 36 35 35 35
43 42 42 41 40 40 40 41 40 40 39 39 39 38 39 38 37 36 35 35 34 34 34 33 32 30 31 34 35 31 30 30 34 35 36 36 36 34 31 30 30 27 29 34 31 30 30 31 35 34 34 34 34 34 35 35 31 31 29 27 28 26 28 29 31 31 28 28 27 28 28 28 27 27 27 28 30 31 30 31 35 37 36 36 35
42 42 41 41 40 40 40 41 40 40 40 39 39 39 39 38 37 36 36 36 35 34 34 34 33 32 32 34 32 31 32 30 34 35 36 36 37 35 29 28 27 27 28 32 28 29 30 30 30 34 34 34 34 34 35 35 35 32 29 28 28 33 32 29 30 33 28 29 29 28 28 27 27 26 27 27 29 29 29 30 35 37 38 37 35
42 42 41 40 40 40 40 40 40 40 40 39 39 38 38 37 37 36 36 36 35 35 35 36 34 33 33 35 33 32 35 38 30 34 35 35 36 35 32 32 31 30 30 28 28 28 29 29 31 33 34 34 34 35 35 34 34 33 30 32 32 32 31 33 29 28 27 27 26 27 27 26 26 26 27 28 28 30 28 28 32 36 39 39 38
41 41 40 39 39 39 40 40 40 40 40 39 38 37 37 37 36 36 36 35 35 35 35 34 33 33 33 34 35 34 33 37 37 33 34 34 34 35 35 32 34 36 28 28 28 28 28 30 33 35 34 34 34 35 35 34 33 30 32 32 32 32 32 29 30 27 27 26 27 26 26 26 26 26 26 26 27 27 27 27 29 33 37 39 40
40 39 39 39 39 39 40 40 39 39 39 39 38 37 36 36 36 36 36 35 35 35 35 34 33 33 34 34 36 35 35 34 37 36 33 34 34 34 33 33 34 32 32 28 29 29 30 29 33 34 34 34 34 34 34 34 31 33 32 32 32 32 30 28 26 27 28 26 26 25 25 26 26 26 26 27 27 27 27 28 28 32 36 38 39
39 38 38 38 38 39 39 39 39 39 39 38 38 37 36 36 35 35 35 35 34 34 34 34 33 33 34 35 35 36 35 33 32 34 34 34 34 33 33 34 33 34 31 31 34 32 34 34 34 34 34 34 34 34 33 34 33 33 32 32 34 27 28 27 27 26 25 25 26 26 25 26 26 27 27 27 28 27 26 27 29 32 35 37 38
38 37 37 37 38 38 38 38 38 38 38 38 37 37 36 36 36 35 34 34 33 33 33 34 33 33 33 34 35 35 34 31 30 29 35 36 34 34 34 35 35 35 34 32 34 34 34 34 34 33 34 34 33 30 29 31 33 33 32 33 27 26 27 26 26 25 25 25 26 26 26 26 26 27 28 27 26 25 26 26 28 30 32 35 36
37 37 37 37 37 38 38 38 38 38 37 37 37 37 36 36 35 35 34 33 32 33 33 34 34 34 33 34 35 34 32 30 29 28 29 29 29 32 31 32 36 34 35 32 33 32 33 33 32 33 33 34 33 33 31 32 30 28 27 26 27 26 27 26 26 26 26 25 26 26 26 26 27 27 26 26 26 25 26 27 27 29 32 34 35
36 36 36 37 37 37 37 36 37 37 37 36 36 37 36 36 35 34 33 32 32 33 34 35 35 35 34 34 35 34 32 30 29 29 29 29 29 28 28 33 28 27 27 28 29 32 31 33 32 30 30 29 29 27 26 27 27 27 27 26 26 27 30 31 30 24 24 25 26 26 26 26 26 26 26 26 25 26 26 26 27 27 30 33 32
36 35 36 36 37 37 37 37 37 36 36 36 36 36 36 36 35 35 35 34 34 35 35 35 36 35 35 35 35 35 32 30 30 31 31 31 29 28 28 28 27 26 33 34 32 30 27 28 29 29 28 28 26 26 26 26 26 26 26 26 26 26 26 26 25 24 25 26 26 26 26 26 26 26 26 26 26 26 25 26 26 27 28 31 32
35 35 35 36 36 37 37 37 36 36 36 37 36 36 34 36 35 35 35 37 35 35 35 35 35 35 35 35 36 35 33 32 32 32 32 32 32 31 32 32 32 31 34 34 33 26 25 25 25 26 27 26 25 24 24 24 24 24 24 27 26 26 26 26 25 25 26 26 26 27 26 27 26 26 26 26 26 26 26 27 26 26 28 30 31
34 35 35 35 36 36 36 36 36 36 36 38 36 34 34 32 33 33 34 36 36 35 35 35 35 35 35 34 36 36 35 34 33 33 33 33 33 33 33 33 33 34 34 28 24 23 22 24 26 25 24 26 23 24 23 21 21 20 23 24 25 26 26 25 25 24 24 25 26 26 27 27 26 26 26 26 26 26 25 26 26 26 27 28 30
34 34 35 35 35 35 36 36 36 37 36 36 36 36 35 32 32 31 33 33 33 34 35 35 34 34 35 35 36 35 34 33 33 33 33 33 32 32 33 34 34 34 33 32 25 23 23 23 25 26 25 24 24 22 23 23 24 22 21 20 24 23 22 23 24 24 24 25 25 25 26 27 27 27 27 27 27 26 26 26 26 26 27 27 29
33 34 34 35 35 35 35 35 36 37 36 35 35 35 35 32 31 29 29 32 34 34 34 35 35 34 34 34 35 34 33 32 33 33 33 32 32 33 33 34 34 34 33 27 23 25 24 26 27 28 26 25 27 26 25 25 25 25 23 21 22 25 25 24 23 24 22 24 25 24 26 27 26 26 27 27 27 26 26 27 26 26 26 27 28
33 34 34 34 35 35 35 35 35 36 35 34 35 33 32 32 31 29 27 27 28 28 30 33 34 34 34 34 34 34 33 33 32 32 32 32 32 33 33 31 34 34 32 26 24 25 26 26 27 28 28 27 27 26 25 25 25 25 24 24 25 25 25 25 24 24 22 23 24 24 25 26 26 26 26 26 27 27 26 26 26 26 26 27 28
34 33 33 34 34 34 34 34 34 35 35 34 33 34 33 31 29 28 27 27 28 28 28 29 31 34 33 33 34 33 33 33 32 32 32 32 33 33 33 26 23 25 26 27 27 27 27 28 28 28 28 28 27 25 25 25 25 25 25 25 24 25 25 24 24 24 23 24 25 24 24 25 26 25 24 25 25 25 26 26 26 26 26 26 27
34 33 34 34 34 34 34 34 34 35 34 33 32 31 30 29 29 28 27 28 28 27 27 27 28 32 34 33 33 33 33 33 33 33 33 33 33 32 25 25 22 24 25 25 26 27 28 28 28 28 28 28 28 27 26 25 25 25 25 25 25 25 25 25 24 22 22 22 22 23 26 25 27 25 25 25 25 26 26 26 26 26 26 26 27
33 34 35 35 34 35 37 38 36 36 33 32 30 30 29 29 28 27 27 26 27 26 26 25 26 27 31 30 33 33 34 34 34 34 34 33 33 31 27 25 23 23 25 25 26 27 27 27 28 28 28 28 27 27 26 25 25 25 27 26 26 25 25 25 24 22 23 22 22 24 23 23 23 25 22 23 25 26 26 26 26 26 26 27 27
33 35 38 38 38 38 37 38 38 33 35 32 31 30 30 29 28 27 26 25 25 25 23 22 27 23 23 24 34 32 31 34 34 34 34 34 29 29 30 28 27 26 25 25 25 26 26 26 27 27 27 28 28 28 26 25 25 25 25 25 25 25 28 26 24 24 21 21 21 22 21 23 23 22 22 22 23 24 25 25 25 25 25 26 26
35 35 35 35 35 37 36 35 35 34 33 32 34 32 31 30 30 29 27 26 26 25 24 22 23 23 22 22 28 32 31 29 29 29 30 30 30 29 29 29 28 28 27 27 27 27 26 26 26 27 28 28 28 28 27 26 25 25 24 24 25 24 23 22 22 22 20 21 21 21 20 21 21 21 21 21 23 23 24 25 25 25 25 25 25
36 36 35 34 35 34 34 33 34 34 33 33 33 32 31 31 31 31 30 29 28 27 26 24 23 23 22 23 26 29 25 25 27 27 27 27 27 28 28 28 28 27 27 26 27 27 27 27 27 27 27 28 28 28 27 26 25 25 25 24 24 24 25 23 21 21 22 22 20 21 20 21 21 21 21 21 22 23 23 24 24 25 25 25 25
36 36 34 34 34 33 33 33 33 33 34 33 33 32 32 31 31 31 31 31 30 30 29 27 25 24 25 27 28 29 23 23 22 23 24 24 24 24 25 26 26 26 27 27 27 27 27 27 27 28 28 28 28 28 27 26 25 25 25 25 24 24 25 24 22 22 22 21 21 21 21 20 20 20 23 23 27 25 22 22 23 24 25 25 25
39 38 36 35 33 32 32 32 33 33 33 33 33 33 32 32 32 31 31 30 30 30 29 28 27 26 28 30 30 31 25 23 24 24 25 25 24 24 25 25 26 26 26 27 28 28 28 28 28 29 29 29 29 29 27 26 25 26 26 25 25 25 25 25 24 22 22 22 22 22 21 21 21 21 22 28 23 22 22 22 22 23 23 24 25
37 36 35 34 33 32 32 31 32 32 33 33 33 32 33 34 32 32 30 30 30 30 29 28 28 28 28 29 31 31 28 26 27 27 27 28 27 27 27 27 27 27 28 28 29 29 29 29 30 30 30 30 29 29 29 28 28 27 27 26 26 26 26 26 25 24 22 21 23 24 24 23 22 20 20 21 21 21 21 22 22 23 22 23 23
36 35 35 33 33 34 35 36 35 33 34 33 33 33 33 33 32 32 30 30 30 29 29 29 29 28 29 30 30 31 30 29 29 28 29 29 29 29 29 29 29 29 29 29 29 30 30 30 30 30 30 29 29 29 28 28 28 28 27 27 27 27 27 26 26 26 25 24 24 24 24 24 24 22 22 23 20 21 23 22 22 22 23 22 23
36 35 34 33 34 34 34 34 34 32 32 32 32 32 32 33 32 32 31 31 30 30 30 30 30 30 30 30 29 30 31 31 31 31 30 30 30 30 30 30 30 30 30 30 30 30 30 30 30 30 30 30 29 28 28 27 27 28 28 28 28 27 28 28 28 28 26 26 26 26 25 25 24 23 22 22 21 20 22 21 20 24 23 22 22
36 35 34 34 33 33 32 32 32 32 32 32 32 32 32 32 32 32 32 31 31 31 30 30 30 30 30 30 30 30 30 30 31 31 31 31 31 31 31 31 31 31 30 31 30 30 29 29 29 29 29 29 29 28 28 28 27 27 27 27 28 28 28 28 29 26 27 26 26 26 26 25 25 24 24 23 21 20 21 22 20 21 21 22 22
36 35 34 34 34 33 33 32 32 32 32 32 32 32 32 32 32 32 32 31 31 31 30 30 30 30 30 29 29 29 30 30 30 31 31 31 31 31 31 31 31 31 31 31 30 30 30 29 29 29 29 30 29 28 28 28 27 27 27 27 27 27 27 28 28 28 28 28 27 26 27 26 26 25 25 25 24 24 23 22 22 22 22 21 22
37 36 35 34 35 34 33 33 33 31 32 32 32 32 32 32 31 31 31 31 30 30 30 30 29 29 29 29 29 29 29 29 30 30 31 31 31 31 31 31 31 31 31 31 31 31 30 30 30 29 29 30 30 29 28 28 28 27 27 27 27 27 27 26 28 28 28 28 28 28 28 27 27 26 25 24 24 24 23 23 22 22 22 22 23
37 36 36 35 34 34 33 33 33 33 32 32 32 32 32 31 31 31 31 30 30 30 29 29 29 29 29 29 29 29 29 29 29 29 29 30 30 30 30 31 31 31 31 31 31 31 31 30 30 30 30 30 30 29 29 29 28 28 28 27 27 28 28 28 28 28 27 30 29 29 29 28 27 26 26 25 25 25 24 23 22 23 23 22 22
38 37 37 36 36 35 34 33 33 33 33 32 32 31 31 31 31 31 30 30 30 29 29 29 29 29 29 29 29 29 29 29 29 29 29 29 29 29 29 29 30 30 30 30 30 30 30 30 30 30 30 30 30 30 30 30 29 29 28 29 29 29 29 30 30 29 28 29 30 29 29 29 28 28 27 26 26 25 24 24 24 24 23 23 23
39 39 38 37 36 36 34 35 33 33 33 32 31 31 30 30 30 30 30 30 30 29 29 29 29 29 28 28 29 29 29 29 29 29 29 29 29 29 29 29 30 30 30 30 30 30 30 30 30 30 31 31 30 30 30 30 30 30 29 29 30 30 30 30 30 30 30 29 30 30 29 29 29 28 27 27 26 24 25 25 25 24 24 24 24